| time (UTC) | temp C | wind direction | speed KPH | gust KPH | rain 1hr cm | rain 24hr cm | rain mn cm | humidity % | barometer mb |
| 20260505165520 | 17 | 197 | 11.3 | 16.1 | 0.00 | 0.74 | 0.74 | 79 | 1009.9 |
| 20260505164520 | 17 | 193 | 12.9 | 16.1 | 0.00 | 0.74 | 0.74 | 79 | 1009.8 |
| 20260505163520 | 17 | 206 | 14.5 | 19.3 | 0.00 | 0.74 | 0.74 | 78 | 1009.9 |
| 20260505162600 | 17 | 187 | 11.3 | 17.7 | 0.00 | 0.74 | 0.74 | 79 | 1009.8 |
| 20260505161520 | 17 | 202 | 9.7 | 12.9 | 0.00 | 0.74 | 0.74 | 80 | 1009.9 |
| 20260505160520 | 17 | 191 | 14.5 | 20.9 | 0.00 | 0.74 | 0.74 | 80 | 1009.9 |
| 20260505152550 | 16 | 203 | 12.9 | 17.7 | 0.00 | 0.74 | 0.74 | 83 | 1010.0 |
| 20260505151520 | 16 | 191 | 12.9 | 17.7 | 0.00 | 0.74 | 0.74 | 82 | 1009.9 |
| 20260505150520 | 16 | 190 | 12.9 | 17.7 | 0.00 | 0.74 | 0.74 | 82 | 1009.8 |
| 20260505140520 | 16 | 199 | 9.7 | 14.5 | 0.00 | 0.74 | 0.74 | 85 | 1009.5 |
| 20260505124520 | 13 | 204 | 8.0 | 11.3 | 0.00 | 0.71 | 0.71 | 93 | 1009.2 |
| 20260505123520 | 13 | 208 | 3.2 | 9.7 | 0.00 | 0.71 | 0.71 | 94 | 1009.1 |
| 20260505122520 | 13 | 176 | 1.6 | 6.4 | 0.00 | 0.71 | 0.71 | 94 | 1008.6 |
| 20260505121520 | 13 | 159 | 8.0 | 11.3 | 0.00 | 0.71 | 0.71 | 95 | 1008.5 |
| 20260505120521 | 13 | 151 | 6.4 | 9.7 | 0.00 | 0.71 | 0.71 | 96 | 1008.9 |
| 20260505115520 | 13 | 194 | 3.2 | 6.4 | 0.00 | 0.71 | 0.71 | 96 | 1009.0 |
| 20260505114520 | 13 | 137 | 8.0 | 11.3 | 0.00 | 0.71 | 0.71 | 96 | 1008.8 |
| 20260505113520 | 13 | 0.0 | 0.0 | 0.00 | 0.71 | 0.71 | 96 | 1009.7 | |
| 20260505112521 | 13 | 207 | 4.8 | 8.0 | 0.03 | 0.71 | 0.71 | 96 | 1009.8 |
| 20260505111601 | 13 | 221 | 3.2 | 8.0 | 0.05 | 0.71 | 0.71 | 96 | 1009.6 |
| 20260505110521 | 13 | 210 | 4.8 | 9.7 | 0.05 | 0.71 | 0.71 | 96 | 1009.3 |
| 20260505100520 | 13 | 153 | 6.4 | 8.0 | 0.36 | 0.66 | 0.66 | 96 | 1009.3 |
| 20260505095521 | 13 | 134 | 4.8 | 6.4 | 0.43 | 0.64 | 0.64 | 96 | 1009.7 |
| 20260505094520 | 13 | 252 | 0.0 | 3.2 | 0.43 | 0.61 | 0.61 | 95 | 1010.0 |
| 20260505093521 | 13 | 150 | 3.2 | 4.8 | 0.43 | 0.56 | 0.56 | 95 | 1010.0 |
| 20260505092541 | 13 | 334 | 1.6 | 4.8 | 0.43 | 0.48 | 0.48 | 94 | 1010.4 |
| 20260505091520 | 13 | 358 | 3.2 | 6.4 | 0.38 | 0.38 | 0.38 | 94 | 1010.7 |
| 20260505090521 | 14 | 329 | 6.4 | 11.3 | 0.30 | 0.30 | 0.30 | 93 | 1010.6 |
| 20260505085521 | 14 | 312 | 4.8 | 9.7 | 0.20 | 0.20 | 0.20 | 91 | 1010.4 |
| 20260505084521 | 14 | 134 | 1.6 | 6.4 | 0.18 | 0.18 | 0.18 | 90 | 1010.2 |
| 20260505083521 | 15 | 358 | 6.4 | 14.5 | 0.13 | 0.13 | 0.13 | 86 | 1010.0 |
| 20260505082520 | 16 | 348 | 8.0 | 17.7 | 0.05 | 0.05 | 0.05 | 79 | 1009.8 |
| 20260505081521 | 16 | 357 | 8.0 | 16.1 | 0.00 | 0.00 | 0.00 | 73 | 1008.9 |
| 20260505080521 | 16 | 320 | 1.6 | 3.2 | 0.00 | 0.00 | 0.00 | 70 | 1008.0 |
| 20260505075521 | 17 | 265 | 1.6 | 4.8 | 0.00 | 0.00 | 0.00 | 68 | 1007.5 |
| 20260505074521 | 17 | 80 | 1.6 | 4.8 | 0.00 | 0.00 | 0.00 | 67 | 1007.1 |
| 20260505073521 | 17 | 78 | 1.6 | 4.8 | 0.00 | 0.00 | 0.00 | 66 | 1007.4 |
| 20260505072521 | 17 | 344 | 0.0 | 3.2 | 0.00 | 0.00 | 0.00 | 64 | 1007.8 |
| 20260505071521 | 18 | 348 | 1.6 | 3.2 | 0.00 | 0.00 | 0.00 | 62 | 1007.5 |
| 20260505070521 | 18 | 337 | 1.6 | 4.8 | 0.00 | 0.00 | 0.00 | 60 | 1007.4 |
| 20260505065521 | 18 | 231 | 9.7 | 12.9 | 0.00 | 0.00 | 0.00 | 58 | 1007.1 |
| 20260505064521 | 18 | 202 | 12.9 | 19.3 | 0.00 | 0.00 | 0.00 | 57 | 1007.1 |
| 20260505063521 | 18 | 193 | 12.9 | 20.9 | 0.00 | 0.00 | 0.00 | 58 | 1007.0 |
| 20260505062541 | 18 | 203 | 11.3 | 17.7 | 0.00 | 0.00 | 0.00 | 58 | 1006.9 |
| 20260505061521 | 18 | 210 | 12.9 | 17.7 | 0.00 | 0.00 | 0.00 | 58 | 1007.1 |
| 20260505060521 | 18 | 197 | 14.5 | 22.5 | 0.00 | 0.00 | 0.00 | 58 | 1006.9 |
| 20260505055521 | 18 | 198 | 12.9 | 16.1 | 0.00 | 0.00 | 0.00 | 57 | 1006.9 |
| 20260505054521 | 19 | 211 | 14.5 | 24.1 | 0.00 | 0.00 | 0.00 | 57 | 1007.0 |
| 20260505053521 | 19 | 207 | 16.1 | 24.1 | 0.00 | 0.00 | 0.00 | 56 | 1006.8 |
| 20260505052521 | 19 | 204 | 14.5 | 20.9 | 0.00 | 0.00 | 0.00 | 55 | 1006.7 |
| 20260505051521 | 19 | 208 | 19.3 | 30.6 | 0.00 | 0.00 | 0.00 | 55 | 1006.5 |
| 20260505050521 | 20 | 200 | 17.7 | 25.7 | 0.00 | 0.00 | 0.00 | 55 | 1006.4 |
| 20260505041521 | 20 | 194 | 14.5 | 27.4 | 0.00 | 0.00 | 0.00 | 54 | 1006.4 |
| 20260505040521 | 20 | 197 | 16.1 | 27.4 | 0.00 | 0.00 | 0.00 | 54 | 1006.7 |
| 20260505035542 | 20 | 200 | 12.9 | 17.7 | 0.00 | 0.00 | 0.00 | 54 | 1006.8 |
| 20260505034521 | 20 | 208 | 16.1 | 24.1 | 0.00 | 0.00 | 0.00 | 54 | 1007.1 |
| 20260505033521 | 20 | 209 | 14.5 | 20.9 | 0.00 | 0.00 | 0.00 | 54 | 1007.2 |
| 20260505032521 | 20 | 204 | 16.1 | 20.9 | 0.00 | 0.00 | 0.00 | 55 | 1007.2 |
| 20260505031521 | 20 | 195 | 14.5 | 20.9 | 0.00 | 0.00 | 0.00 | 54 | 1007.3 |
| 20260505030522 | 20 | 206 | 12.9 | 16.1 | 0.00 | 0.00 | 0.00 | 54 | 1007.3 |
| 20260505025521 | 20 | 207 | 14.5 | 19.3 | 0.00 | 0.00 | 0.00 | 54 | 1007.0 |
| 20260505024521 | 20 | 206 | 14.5 | 16.1 | 0.00 | 0.00 | 0.00 | 54 | 1006.9 |
| 20260505023522 | 20 | 199 | 14.5 | 20.9 | 0.00 | 0.00 | 0.00 | 54 | 1006.8 |
| 20260505022521 | 20 | 204 | 14.5 | 20.9 | 0.00 | 0.00 | 0.00 | 55 | 1006.8 |
| 20260505021521 | 20 | 199 | 14.5 | 22.5 | 0.00 | 0.00 | 0.00 | 55 | 1006.5 |
| 20260505020522 | 20 | 203 | 12.9 | 17.7 | 0.00 | 0.00 | 0.00 | 56 | 1006.3 |
| 20260505015521 | 20 | 212 | 12.9 | 19.3 | 0.00 | 0.00 | 0.00 | 56 | 1006.2 |
| 20260505014522 | 20 | 188 | 11.3 | 16.1 | 0.00 | 0.00 | 0.00 | 56 | 1005.9 |
| 20260505013601 | 21 | 203 | 12.9 | 19.3 | 0.00 | 0.00 | 0.00 | 55 | 1005.7 |
| 20260505012522 | 21 | 196 | 12.9 | 19.3 | 0.00 | 0.00 | 0.00 | 54 | 1005.6 |
| 20260505011522 | 21 | 200 | 14.5 | 19.3 | 0.00 | 0.00 | 0.00 | 54 | 1005.5 |
| 20260505010522 | 21 | 211 | 11.3 | 14.5 | 0.00 | 0.00 | 0.00 | 53 | 1005.5 |
| 20260505005522 | 21 | 201 | 9.7 | 17.7 | 0.00 | 0.00 | 0.00 | 52 | 1005.4 |
| 20260505004522 | 21 | 199 | 11.3 | 14.5 | 0.00 | 0.00 | 0.00 | 51 | 1005.5 |
| 20260505003522 | 22 | 198 | 11.3 | 14.5 | 0.00 | 0.00 | 0.00 | 49 | 1005.6 |
| 20260505002522 | 22 | 195 | 12.9 | 19.3 | 0.00 | 0.00 | 0.00 | 49 | 1005.5 |
| 20260505001522 | 22 | 201 | 12.9 | 22.5 | 0.00 | 0.00 | 0.00 | 48 | 1005.6 |
| 20260505000522 | 22 | 208 | 17.7 | 27.4 | 0.00 | 0.00 | 0.00 | 48 | 1005.7 |
| 20260504235522 | 22 | 207 | 16.1 | 20.9 | 0.00 | 0.00 | 0.00 | 48 | 1005.7 |
| 20260504234522 | 23 | 211 | 12.9 | 17.7 | 0.00 | 0.00 | 0.00 | 47 | 1005.8 |
| 20260504233522 | 23 | 212 | 17.7 | 25.7 | 0.00 | 0.00 | 0.00 | 48 | 1006.1 |
| 20260504232522 | 23 | 204 | 16.1 | 25.7 | 0.00 | 0.00 | 0.00 | 49 | 1006.3 |
| 20260504231542 | 23 | 205 | 17.7 | 24.1 | 0.00 | 0.00 | 0.00 | 48 | 1006.4 |
| 20260504230542 | 23 | 221 | 12.9 | 19.3 | 0.00 | 0.00 | 0.00 | 49 | 1006.5 |
| 20260504225522 | 23 | 207 | 12.9 | 17.7 | 0.00 | 0.00 | 0.00 | 50 | 1006.6 |
| 20260504224522 | 23 | 208 | 14.5 | 19.3 | 0.00 | 0.00 | 0.00 | 49 | 1006.7 |
| 20260504223522 | 23 | 201 | 14.5 | 20.9 | 0.00 | 0.00 | 0.00 | 48 | 1006.8 |
| 20260504222522 | 23 | 206 | 19.3 | 30.6 | 0.00 | 0.00 | 0.00 | 47 | 1006.9 |
| 20260504221522 | 23 | 212 | 19.3 | 27.4 | 0.00 | 0.00 | 0.00 | 47 | 1007.0 |
| 20260504220522 | 23 | 200 | 24.1 | 30.6 | 0.00 | 0.00 | 0.00 | 45 | 1007.1 |
| 20260504215522 | 24 | 217 | 19.3 | 29.0 | 0.00 | 0.00 | 0.00 | 45 | 1007.0 |
| 20260504214522 | 24 | 212 | 22.5 | 30.6 | 0.00 | 0.00 | 0.00 | 44 | 1007.0 |
| 20260504213522 | 24 | 210 | 24.1 | 33.8 | 0.00 | 0.00 | 0.00 | 43 | 1007.0 |
| 20260504212522 | 25 | 216 | 19.3 | 33.8 | 0.00 | 0.00 | 0.00 | 41 | 1006.9 |
| 20260504211522 | 25 | 209 | 19.3 | 29.0 | 0.00 | 0.00 | 0.00 | 45 | 1006.9 |
| 20260504210522 | 24 | 204 | 12.9 | 22.5 | 0.00 | 0.00 | 0.00 | 49 | 1007.1 |
| 20260504205522 | 23 | 221 | 8.0 | 11.3 | 0.00 | 0.00 | 0.00 | 50 | 1007.5 |
| 20260504204522 | 25 | 226 | 8.0 | 14.5 | 0.00 | 0.00 | 0.00 | 47 | 1007.7 |
| 20260504203522 | 25 | 249 | 6.4 | 11.3 | 0.00 | 0.00 | 0.00 | 45 | 1007.9 |
| 20260504202522 | 25 | 242 | 11.3 | 20.9 | 0.00 | 0.00 | 0.00 | 44 | 1008.1 |
| 20260504201522 | 25 | 233 | 9.7 | 14.5 | 0.00 | 0.00 | 0.00 | 46 | 1008.1 |
| 20260504200543 | 24 | 203 | 9.7 | 22.5 | 0.00 | 0.00 | 0.00 | 48 | 1008.2 |
| 20260504195522 | 25 | 210 | 12.9 | 22.5 | 0.00 | 0.00 | 0.00 | 50 | 1008.4 |
| 20260504194522 | 24 | 220 | 9.7 | 19.3 | 0.00 | 0.00 | 0.00 | 51 | 1008.6 |
| 20260504193522 | 23 | 201 | 12.9 | 19.3 | 0.00 | 0.00 | 0.00 | 53 | 1008.7 |
| 20260504192523 | 22 | 242 | 9.7 | 14.5 | 0.00 | 0.00 | 0.00 | 53 | 1008.8 |
| 20260504191522 | 22 | 222 | 6.4 | 12.9 | 0.00 | 0.00 | 0.00 | 59 | 1008.8 |
| 20260504190523 | 22 | 213 | 12.9 | 20.9 | 0.00 | 0.00 | 0.00 | 58 | 1009.0 |
| 20260504185522 | 21 | 218 | 11.3 | 14.5 | 0.00 | 0.00 | 0.00 | 62 | 1009.2 |
| 20260504184523 | 21 | 217 | 8.0 | 12.9 | 0.00 | 0.00 | 0.00 | 64 | 1009.4 |
| 20260504183543 | 20 | 216 | 6.4 | 9.7 | 0.00 | 0.00 | 0.00 | 66 | 1009.4 |
| 20260504182623 | 19 | 197 | 4.8 | 6.4 | 0.00 | 0.00 | 0.00 | 67 | 1009.4 |
| 20260504181523 | 19 | 199 | 11.3 | 14.5 | 0.00 | 0.00 | 0.00 | 67 | 1009.5 |
| 20260504180543 | 18 | 219 | 11.3 | 14.5 | 0.00 | 0.00 | 0.00 | 67 | 1009.7 |
| 20260504175523 | 19 | 223 | 8.0 | 16.1 | 0.00 | 0.00 | 0.00 | 67 | 1009.5 |
| 20260504174522 | 20 | 212 | 14.5 | 17.7 | 0.00 | 0.00 | 0.00 | 63 | 1009.2 |
| 20260504173523 | 20 | 224 | 16.1 | 19.3 | 0.00 | 0.00 | 0.00 | 62 | 1009.4 |
| 20260504172523 | 20 | 204 | 19.3 | 24.1 | 0.00 | 0.00 | 0.00 | 62 | 1009.3 |
| 20260504171523 | 20 | 210 | 16.1 | 24.1 | 0.00 | 0.00 | 0.00 | 64 | 1009.3 |
| 20260504170523 | 20 | 202 | 19.3 | 24.1 | 0.00 | 0.00 | 0.00 | 63 | 1009.2 |